Hundvaag 1 weather for Oct 1988
Month no. 16
Obs.
Da.
Temp. Dew Point Precip. Wind
Speed
Wind gusts Cloud cover Press. Humidity Wind dir. Sunny OPT
01.10.1988 7,8   3,2                
02.10.1988 12,8   1,5                
03.10.1988 10,6   7,1             1  
04.10.1988 10,6   1,0                
05.10.1988 11,3   1,9                
06.10.1988 10,6   5,9             1  
07.10.1988 6,3   23,1             1  
08.10.1988 8,4   13,3             1  
09.10.1988 8,2   19,4             1  
10.10.1988 7,2   21,8             1  
11.10.1988 2,7   0,2             1  
12.10.1988 4,5   0,0             1  
13.10.1988 9,8   9,5             1  
14.10.1988 10,0   1,9                
15.10.1988 9,0   5,5             1  
16.10.1988 6,6   1,4             1  
17.10.1988 6,4   0,0             1  
18.10.1988 5,8   0,0             1  
19.10.1988 10,4   0,0             1  
20.10.1988 7,7   0,0             1  
21.10.1988 5,5   0,2             1  
22.10.1988 8,4   1,5                
23.10.1988 9,0   4,1             1  
24.10.1988 4,7   0,0                
25.10.1988 4,7   0,9             1  
26.10.1988 4,8   0,0                
27.10.1988 8,7   7,1                
28.10.1988 7,8   9,9                
29.10.1988 0,2   5,1             1  
30.10.1988 2,4   1,5                
31.10.1988 5,0   11,9             1  
Avrg/Sum 7,4   158,9             20